Location: Little Dicks
(18.2333°N, 63.0333°W)
Time: 01:13:07
(UTC+00:00)

Daily predictions for brighter satellites

Satellite Brightness Start Highest point End
(mag) Time Altitude Azimuth Time Altitude Azimuth Time Altitude Azimuth
MOS 1 4.2 00:08:24 69° NNE 00:08:24 69° NNE 00:13:24 10° N
H-2A R/B 3.5 00:15:58 26° N 00:15:58 26° N 00:18:15 10° N
Cosmos 1763 Rocket 4.5 00:13:51 10° SSW 00:16:56 37° SSW 00:16:56 37° SSW
Ariane Rocket 4.0 00:17:19 10° S 00:22:08 44° W 00:26:58 10° NNW
Intelsat 5-1 Rocket 4.5 00:36:26 10° WNW 00:43:39 66° N 00:45:43 60° NE
Intelsat 5-3 Rocket 4.4 00:33:59 10° WNW 00:50:04 67° NNW 00:50:04 67° NNW
FALCON 9 R/B 4.3 01:02:26 10° NW 01:07:44 27° NW 01:07:44 27° NW
Atlas Centaur 2 3.2 08:02:10 65° ESE 08:02:10 65° ESE 08:09:45 10° ENE
Cosmos 1934 Rocket 4.4 08:41:15 49° SSW 08:41:15 49° SSW 08:45:53 10° S
Delta 168 4.4 08:40:45 39° NNE 08:40:45 39° NNE 08:44:24 10° ENE
ISS -1.2 08:41:56 21° E 08:41:56 21° E 08:43:48 10° ENE
SWIFT 3.6 08:43:03 38° ENE 08:43:03 38° ENE 08:45:51 10° E
USA 229 DEB 3.8 08:39:56 40° NNW 08:43:06 89° WSW 08:50:48 10° SSE
USA 229 3.8 08:39:58 39° NNW 08:43:11 90° WSW 08:50:52 10° SSE
USA 267 4.2 08:37:54 10° ESE 08:44:00 43° NE 08:49:02 15° NNW
NOSS 3-3 (A) 4.2 08:41:40 19° S 08:45:37 59° ESE 08:51:23 10° NE
NOSS 3-3 (C) 4.2 08:41:32 17° S 08:45:44 58° ESE 08:51:29 10° NE
Cosmos 1992 Rocket 4.0 08:48:15 41° N 08:50:05 76° ENE 08:55:16 10° SSE
Cosmos 1943 Rocket 4.0 08:47:14 10° N 08:51:55 28° ENE 08:56:35 10° SE
ASTRO E2 3.7 08:59:59 36° S 08:59:59 36° S 09:02:47 10° SE
ALOS 2.9 08:54:56 10° NNE 08:59:30 56° E 09:04:03 10° S
GPS 2-14 Rocket1 3.2 08:59:55 51° SSE 08:59:55 51° SSE 09:03:48 10° E
Cosmos 1605 Rocket 3.8 08:59:52 10° NNW 09:05:56 65° W 09:11:56 10° S
Cosmos 2297 3.8 09:09:38 41° WNW 09:11:06 51° WSW 09:16:34 10° S
STARLINK-1062 4.4 09:09:39 27° N 09:11:32 48° NE 09:15:31 10° SE
Cosmos 1500 Rocket 3.9 09:09:22 10° N 09:13:42 63° E 09:18:00 10° SSE
CZ-3A R/B 3.8 09:09:43 30° WSW 09:13:43 53° SSW 09:47:47 10° SE
FENGYUN 3A 3.6 09:10:15 10° NNE 09:15:41 87° ESE 09:21:07 10° SSW
STARLINK-1053 4.2 09:14:25 26° NNW 09:16:28 55° NE 09:20:30 10° SE
Cosmos 1727 Rocket 4.4 09:13:14 10° SSW 09:18:53 37° W 09:24:33 10° NNW
NATO 3D Rocket 3.5 09:16:38 36° W 09:18:58 76° N 09:23:50 10° ENE
Cosmos 1943 4.4 09:21:20 23° NW 09:21:20 23° NW 09:24:26 10° NNW
CZ-3 R/B 3.5 09:04:25 25° WNW 09:21:01 56° SW 09:29:07 10° SE
STARLINK-1061 3.9 09:19:15 25° NNW 09:21:29 64° NE 09:25:35 10° SE
SL-8 R/B 4.1 09:17:40 13° SSW 09:21:54 63° SE 09:26:38 10° NE
FUSE 4.5 09:20:12 32° WNW 09:22:08 46° N 09:27:19 10° ENE
Cosmos 1153 Rocket 4.3 09:16:18 10° N 09:22:25 78° W 09:28:34 10° S
Cosmos 2369 Rocket 3.2 09:19:27 10° N 09:24:56 47° ENE 09:30:21 10° SE
Cosmos 1743 Rocket 3.4 09:22:00 10° N 09:26:19 76° W 09:30:38 10° S
STARLINK-1067 3.7 09:24:00 23° NNW 09:26:27 74° NE 09:30:34 10° SE
Fermi 3.6 09:27:16 36° WSW 09:28:50 84° NNW 09:32:53 10° ENE
Delta 7925 Rocket 3.9 09:27:25 24° NW 09:29:44 42° NNE 09:34:11 10° E
Okean O Rocket 2.6 09:26:15 10° NNE 09:30:28 49° E 09:34:38 10° S
Milstar 3 4.2 09:18:58 20° WNW 09:31:23 67° NNE 09:40:12 10° E
Aurora 2 Rocket 3.6 09:28:56 23° NW 09:31:26 36° N 09:35:18 10° ENE
STARLINK-1058 3.6 09:28:49 22° NW 09:31:27 85° ENE 09:35:34 10° SE
Cosmos 1140 Rocket 4.3 09:30:58 26° W 09:31:58 28° WNW 09:36:25 10° NNW
SJ-12 4.0 09:27:59 10° N 09:31:59 49° WNW 09:35:58 10° SSW
Cosmos 1954 Rocket 4.3 09:28:16 10° SSW 09:33:18 45° WNW 09:38:22 10° N
STARLINK-1043 3.5 09:33:34 20° NW 09:36:23 83° SW 09:40:30 10° SE
Cosmos 1850 Rocket 4.5 09:33:27 10° S 09:38:42 65° ESE 09:43:57 10° NNE
Palapa 6 Rocket 4.4 09:34:17 21° WNW 09:40:03 81° SSW 09:47:22 10° ESE
Cosmos 2173 Rocket 4.1 09:34:00 10° N 09:40:12 79° E 09:46:20 10° S
CZ-4B DEB 4.1 09:35:38 10° N 09:41:02 67° WNW 09:46:25 10° SSW
Helios 1A Rocket 4.4 09:37:17 10° NNE 09:41:09 40° E 09:44:59 10° S
STARLINK-1065 3.5 09:38:21 18° NW 09:41:21 72° SW 09:45:28 10° SSE
COSMO-SKYMED 1 2.7 09:39:25 10° SSE 09:43:44 80° ENE 09:48:04 10° N
Cosmos 921 Rocket 3.9 09:40:17 10° N 09:44:29 50° ENE 09:48:37 10° SSE
GPS 2-12 Rocket1 4.3 09:42:38 17° WSW 09:45:26 30° SSW 09:49:32 10° SE
STARLINK-1063 3.6 09:43:07 16° NW 09:46:18 62° SW 09:50:22 10° SSE
CZ-4B R/B 3.2 09:41:59 10° NNE 09:47:16 82° ESE 09:52:34 10° S
STARLINK-1064 3.8 09:47:53 14° NW 09:51:15 53° SW 09:55:17 10° SSE
Atlas Centaur 2 3.4 09:44:48 16° W 09:51:27 54° NNW 09:59:43 10° ENE
STARLINK-1041 3.9 09:52:41 12° NW 09:56:14 46° SW 10:00:11 10° SSE
Meteor 2-3 Rocket 4.5 09:51:40 10° NNW 09:56:39 31° W 10:01:40 10° SSW
Cosmos 2100 Rocket 3.9 09:51:32 10° NNW 09:57:37 64° W 10:03:39 10° S
Centaur D-1A AC-32 3.0 09:57:24 12° WNW 10:00:48 76° NNE 10:12:24 10° ESE
STARLINK-1038 4.1 09:57:29 11° NW 10:01:12 40° SW 10:05:04 10° SSE
ATLAS 2A CENTAUR R/B 2.1 09:59:14 12° NW 10:01:40 51° NNE 10:09:07 10° E
Cosmos 1818 4.4 09:59:23 10° S 10:04:40 56° ESE 10:09:58 10° NE
Cosmos 1741 Rocket 4.0 09:59:36 10° SSW 10:04:46 67° WNW 10:09:58 10° N
STARLINK-1046 4.3 10:02:21 10° WNW 10:06:08 35° SW 10:09:53 10° S
Cosmos 1459 Rocket 4.1 10:01:34 10° NNW 10:07:39 57° W 10:13:49 10° S
Cosmos 2123 Rocket 4.2 10:02:10 10° SSW 10:08:16 51° W 10:14:22 10° N
Cosmos 1315 Rocket 3.0 10:07:37 10° S 10:11:36 77° E 10:15:32 10° N
Cosmos 1606 3.2 10:07:55 10° S 10:11:43 64° E 10:15:28 10° NNE
OAO 2 Rocket 3.5 10:08:06 10° WSW 10:13:21 88° SSE 10:18:41 10° ENE
CZ-3B R/B 2.9 10:11:08 10° SW 10:13:55 48° SSE 10:21:57 10° ENE
Cosmos 2061 Rocket 4.0 10:09:32 10° N 10:15:44 73° W 10:21:53 10° S
Cosmos 1238 Rocket 3.3 10:11:15 10° NNW 10:16:23 61° W 10:20:34 10° S
